Weather History for Belize, Belize

Change the Weather History Date:

Sunday, October 23, 2011

  Actual Average Record
Temperature  
Mean Temperature 75 °F -  
Max Temperature 84 °F 85 °F 89 °F (2006)
Min Temperature 66 °F 71 °F 66 °F (2011)
Cooling Degree Days 10    
Growing Degree Days 25 (Base 50)    
Moisture  
Dew Point 65 °F    
Average Humidity 66    
Maximum Humidity 94    
Minimum Humidity 39    
Precipitation  
Precipitation 0.00 in 0.26 in - ()
Sea Level Pressure  
Sea Level Pressure 29.97 in    
Wind  
Wind Speed 6 mph ()    
Max Wind Speed 10 mph    
Max Gust Speed -    
Visibility 9.2 miles    
Events      
Averages and records for this station are not official NWS values.
T = Trace of Precipitation, MM = Missing Value Source: Averaged Metar Reports

Daily Weather History Graph

Daily Weather History Graph

Search for Another Location

Airport:

Trip Planner

Search our weather history database for the weather conditions in past years. The results will help you decide how hot, cold, wet, or windy it might be!

Date:

Astronomy

Oct. 23, 2011 Rise Set
Actual Time 5:48 AM CST 5:26 PM CST
Civil Twilight 5:26 AM CST 5:48 PM CST
Nautical Twilight 5:01 AM CST 6:13 PM CST
Astronomical Twilight 4:35 AM CST 6:39 PM CST
Moon 2:25 AM CST (10/23) 2:53 PM CST (10/23)
Length of Visible Light 12h 21m
Length of Day
11h 37m
Waning Crescent, 14% of the Moon is Illuminated
Oct 23
Waning Crescent
Oct 26
New
Nov 2
First Quarter
Nov 10
Full
Nov 18
Last Quarter

Hourly Weather History & Observations

Time (CST) Temp. Heat Index Dew Point Humidity Pressure Visibility Wind Dir Wind Speed Gust Speed Precip Events Conditions
12:00 AM 72 °F - 65 °F 71% 29.96 in 12 mi NW 4.6 mph - -  
12:00 AM 71.6 °F - 64.4 °F 78% 29.95 in 6.2 mi NW 4.6 mph - N/A   Partly Cloudy
3:00 AM 69 °F - 65 °F 84% 29.94 in 12 mi NNW 5.8 mph - -   Clear
3:00 AM 69.8 °F - 66.2 °F 88% 29.92 in - NNW 5.8 mph - N/A   Unknown
6:00 AM 66 °F - 64 °F 90% 29.98 in 12 mi WNW 4.6 mph - -  
6:00 AM 66.2 °F - 64.4 °F 94% 29.98 in 6.2 mi WNW 4.6 mph - N/A   Mostly Cloudy
7:00 AM 68.0 °F - 64.4 °F 88% 29.98 in - North - - N/A   Scattered Clouds
8:00 AM 73.4 °F - 64.4 °F 73% 30.01 in - NW 8.1 mph - N/A   Clear
9:00 AM 76 °F - 65 °F 60% 30.01 in 12 mi NNW 9.2 mph - -   Scattered Clouds
9:00 AM 77.0 °F - 64.4 °F 65% 30.00 in - NNW 9.2 mph - N/A   Clear
10:00 AM 78.8 °F - 64.4 °F 61% 30.01 in 6.2 mi NNW 9.2 mph - N/A   Partly Cloudy
11:00 AM 82.4 °F 82.9 °F 60.8 °F 48% 29.98 in 6.2 mi NNW 10.4 mph - N/A   Partly Cloudy
12:00 PM 82 °F - 61 °F 39% 29.96 in 12 mi North 9.2 mph - -  
12:00 PM 82.4 °F 82.9 °F 60.8 °F 48% 29.95 in 6.2 mi North 9.2 mph - N/A   Scattered Clouds
1:00 PM 84.2 °F 85.0 °F 62.6 °F 48% 29.93 in 6.2 mi NW 8.1 mph - N/A   Partly Cloudy
2:00 PM 82.4 °F 84.6 °F 66.2 °F 58% 29.93 in 6.2 mi ENE 8.1 mph - N/A   Partly Cloudy
3:00 PM 82 °F - 66 °F 50% 29.93 in 17 mi ENE 10.4 mph - -   Partly Cloudy
3:00 PM 82.4 °F 84.6 °F 66.2 °F 58% 29.93 in 6.2 mi ENE 10.4 mph - N/A   Scattered Clouds
4:00 PM 82.4 °F 83.9 °F 64.4 °F 54% 29.93 in 6.2 mi ENE 9.2 mph - N/A   Partly Cloudy
5:00 PM 80.6 °F 82.3 °F 64.4 °F 58% 29.94 in 6.2 mi NE 6.9 mph - N/A   Partly Cloudy
6:00 PM 79 °F - 67 °F 58% 29.97 in 17 mi North 3.5 mph - -  
6:00 PM 78.8 °F - 66.2 °F 65% 29.96 in 6.2 mi North 3.5 mph - N/A   Scattered Clouds
9:00 PM 73 °F - 66 °F 72% 30.03 in 16 mi Calm Calm - -   Scattered Clouds
9:00 PM 73.4 °F - 66.2 °F 78% 30.02 in 6.2 mi Calm Calm - N/A   Partly Cloudy